Regional Weather Roundup
Issued by NWS Charleston, SC

Home | Current Version | Previous Version | Text Only | Print | Product List | Glossary On
Versions: 1 2 3 4 5 6 7 8 9 10 11 12 13 14 15 16 17 18 19 20 21 22 23 24 25 26 27 28 29 30 31 32 33 34 35 36 37 38 39 40 41 42 43 44 45 46 47 48 49 50
000
ASUS42 KCHS 230612
RWRCHS

REGIONAL WEATHER ROUNDUP
NATIONAL WEATHER SERVICE CHARLESTON SC
200 AM EDT TUE MAY 23 2017

NOTE: "FAIR" INDICATES FEW OR NO CLOUDS BELOW 12,000 FEET WITH NO
SIGNIFICANT WEATHER AND/OR OBSTRUCTIONS TO VISIBILITY.

NOT ALL STATIONS ARE QUALITY CONTROLLED. USE DATA WITH CAUTION...
ESPECIALLY DEWPOINT OBSERVATIONS.

SCZ027-030-031-034>040-042>050-230700-
...SOUTHEAST SOUTH CAROLINA...

CITY           SKY/WX    TMP DP  RH WIND       PRES   REMARKS
N CHARLESTON   LGT RAIN  70  67  90 SW9       29.90F FOG
6HR MIN TEMP:  70; 6HR MAX TEMP:  76; 6HR PCP:  0.25;

WATERFRONT PRK   N/A     71  70  96 VRB2      29.91F
JOHNS ISLAND   LGT RAIN  72  70  94 CALM      29.91F
PINOPOLIS      NOT AVBL
MONCKS CORNER  RAIN      68  68 100 SW10      29.90F
SUMMERVILLE    CLOUDY    70  68  94 S7        29.92F
BEAUFORT MCAS  LGT RAIN  71  70  96 CALM      29.90F
6HR MIN TEMP:  70; 6HR MAX TEMP:  77; 6HR PCP:  1.36;

BEAUFORT ARPT  RAIN      70  70 100 E3        29.91F
HILTON HEAD IS CLOUDY    72  72 100 CALM      29.92F
WALTERBORO     LGT RAIN  68  68 100 SE5       29.90F
ALLENDALE      MOCLDY    70  70 100 S6        29.88F

...SOUTHERN MIDLANDS AND PEE DEE...

CITY           SKY/WX    TMP DP  RH WIND       PRES   REMARKS
GEORGETOWN     RAIN      70  70 100 CALM      29.93F
KINGSTREE      DRIZZLE  N/A N/A N/A CALM      29.91F
ORANGEBURG     CLOUDY    71  70  96 CALM      29.90F
6HR MIN TEMP:  70; 6HR MAX TEMP:  71; 6HR PCP:  0.08;

BARNWELL       CLOUDY    72  72 100 CALM      29.89F
AIKEN          CLOUDY    68  68 100 CALM      29.94F
MANNING        MOCLDY    68  68 100 S5        29.91F
COLUMBIA       CLOUDY    71  68  90 CALM      29.90F
6HR MIN TEMP:  70; 6HR MAX TEMP:  71; 6HR PCP: TRACE;

SUMTER         LGT RAIN  70  68  94 S8        29.88F FOG
6HR MIN TEMP:  69; 6HR MAX TEMP:  70; 6HR PCP:  0.01;

FLORENCE       CLOUDY    69  69 100 E5        29.92F
6HR MIN TEMP:  69; 6HR MAX TEMP:  70; 6HR PCP:  0.12;

MYRTLE BEACH   CLOUDY    72  68  87 E12       29.92
N MYRTLE BEACH CLOUDY    71  67  87 E8        29.91F
6HR MIN TEMP:  68; 6HR MAX TEMP:  75; 6HR PCP:  0.47;


$$

GAZ063-065-086>088-099>101-113>116-118-119-134>141-150-230700-
...SOUTHEAST GEORGIA...

CITY           SKY/WX    TMP DP  RH WIND       PRES   REMARKS
SAVANNAH ARPT  RAIN      72  71  97 S8        29.91F
6HR MIN TEMP:  71; 6HR MAX TEMP:  74; 6HR PCP:  0.90;

HUNTER AAF     MOCLDY    73  73 100 CALM      29.88F
                                      6HR PCP:  0.02;

FORT STEWART   CLOUDY    72  70  94 S3        29.90F
6HR MIN TEMP:  72; 6HR MAX TEMP:  78; 6HR PCP:  0.21;

STATESBORO     CLOUDY    72  72 100 S6        29.90F
SYLVANIA       CLOUDY    71  71 100 S5        29.90F
CLAXTON        FAIR     N/A N/A N/A S3        29.91F

...CSRA...CENTRAL AND FAR SOUTHEAST GEORGIA...

CITY           SKY/WX    TMP DP  RH WIND       PRES   REMARKS
THOMSON        CLOUDY    70  68  95 CALM      29.96S
AUGUSTA-BUSH   CLOUDY    73  70  90 CALM      29.89F
6HR MIN TEMP:  71; 6HR MAX TEMP:  73; 6HR PCP: TRACE;

AUGUSTA-DANIEL CLOUDY    72  67  84 CALM      29.91F
SWAINSBORO     CLOUDY    70  70 100 S6        29.91F
VIDALIA        MOCLDY    70  70 100 CALM      29.93F
EASTMAN        MOCLDY    71  71 100 CALM      29.93F
HAZLEHURST     MOCLDY    73  73 100 S3        29.90F
ALMA           MOCLDY    73  71  93 SE3       29.91F
6HR MIN TEMP:  73; 6HR MAX TEMP:  83; 6HR PCP:  0.02;

WAYCROSS       MOCLDY    76  76 100 S6        29.92F
JESUP          CLOUDY    73  68  83 CALM      29.93S
BAXLEY         MOCLDY    73  73 100 SE3       29.91F
BRUNSWICK      PTCLDY    73  72  94 SW7       29.93F
SAINT SIMONS   CLOUDY    75  70  84 SW9       29.92F
6HR MIN TEMP:  75; 6HR MAX TEMP:  78; 6HR PCP:  0.04;


$$

SCZ027-028-034-036>038-045-046-048>050-GAZ119-141-230700-
...LAKE AND SUPPLEMENTAL COASTAL OBSERVATIONS...

STATION/POSITION TIME  TEMP    WIND        PRES    WAVE   SWELL
                       AIR SEA DIR/SP/G            HT/PER HT/PER/DIR
                 (UTC) (F)     (DEG/KT/KT) (MB)    (FT/S) (FT/S/D)
WINYAH BAY       NOT AVBL
LAKE MURRAY      0520   71     120/  3/  6 1012.9
ACE BASIN NERRS  0445   69     260/  1     1015.0
FORT PULASKI     0548   75 80  270/  8/ 10 1012.9F
SAPELO ISLAND    0500   75     210/  8     1014.0

$$

ANZ835-935-AMZ111-154-330-350-352-354-370-450-454-472-230700-
...C-MAN AND BUOY OBSERVATIONS...

STATION/POSITION TIME  TEMP    WIND        PRES    WAVE   SWELL
                       AIR SEA DIR/SP/G            HT/PER HT/PER/DIR
                 (UTC) (F)     (DEG/KT/KT) (MB)    (FT/S) (FT/S/D)
BUOY 41004       0550   78 78  170/ 16/ 19 1012.0F   3/ 4   2/110/ 8
BUOY 41008       0450   77 78  180/ 17/ 23 1013.5    4/ 5   2/ 90/ 9
FOLLY BEACH CMAN 0500   71     210/  3/  5 1014.6F
CAPERS NEARSHORE 0508   76 77  190/ 14/ 23 1013.5F
FRIPP NEARSHORE  0508   78 79  200/ 17/ 27 1012.9F


STATION/POSITION TIME  TEMP    WIND        PRES    WAVE   SWELL
                       AIR SEA DIR/SP/G            HT/PER HT/PER/DIR
                 (UTC) (F)     (DEG/KT/KT) (MB)    (FT/S) (FT/S/D)
5E ST. MARYS GA  0530      79                N/A     4/ 5
FRYING PAN BUOY  0550   71 77   40/ 12/ 14 1013.5F   3/ 4   2/ 80/ 8
BUOY 41025       0550   74 78  200/ 17/ 19 1013.8F   3/ 8   2/ 80/ 8
CAPE LOOKOUT NC  0500   73     250/  7/  9 1014.5F
BUOY 41002       0450   76 76  170/ 12/ 16 1017.9    3/ 8   2/ 30/ 8
BUOY 41010       0550   78 79  170/ 14/ 17 1015.4F   3/ 8   2/ 70/ 8
ST AUGUSTINE FL  0600   72 79  200/  8/ 10 1015.0F


$$




USA.gov is the U.S. government's official web portal to all federal, state and local government web resources and services.